STARLINK-32267, 60363

Orbit data source: Space-Track

STARLINK-32267, 60363 is a payload satellite owned by SpaceX/Seattle (US) in LEO that was launched on Sun, 04 Aug 2024 UTC via an FALCON 9 launch vehicle from the Air Force Western Test Range (AFWTR). Payload-class satellites include a variety of spacecraft equipped with specific instruments for various scientific and technological missions. These include communications satellites like Starlink; space stations such as the ISS; scientific satellites like the Hubble; Earth observation satellites from companies like Planet Labs, Umbra, and HawkEye 360; GPS; miniature CubeSats for education and research; and military/defense satellites.

Loading next visibility...
Identifier
60363, 2024-138J
Orbit
LEO
Country
Flag of USUS
Related business
Manufacturer
SpaceX/Seattle
Mission
Operational Commercial Communications
Bus & Motor
STARLINK V2M, Unknown motor
Mass
730 kg wet, ~700 kg dry
Launch date (UTC)
2024-08-04 (1 year ago)
Launch vehicle
FALCON 9
Launch site
Air Force Western Test Range (AFWTR)
Object type
Payload
Rocket body
Debris
Shape & HBR
Box + 2 Pan, 17.7 m
Radar Cross Section
33.884 m², Large (>1 m²)

Expand to show TLE details & history
Last TLE update: 1 day ago

TLE from 1 day ago
0 STARLINK-32267
1 60363U 24138J   25353.21473505  .00000549  00000-0  30664-4 0  9992
2 60363  53.1629 323.6072 0001292  87.1583 272.9566 15.30196115 78302
Epoch: 2025-12-19T05:09Z
TLE epoch observation values (Epoch: 2025-12-19T05:09:13.108Z)
Latitude
0.00001°
Longitude
158.2435°
Altitude
476.081 km
Speed
7.629 km/s
True Right ascension
21h 34m 25s
True Declination
0° 00' 00"
Sunlit
Object was in daylight at epoch
Visualization orbit readout
Latitude
Unknown
Longitude
Unknown
Altitude
Unknown
Speed
Unknown
Apparent Right ascension
Unknown
Apparent Declination
Unknown
Sunlit
N/A
Visualization observer readout
Local Sidereal Time
06:20:29
Azimuth
Unknown
Elevation
Unknown
Doppler factor
Unknown
Orbital elements
Apogee altitude
476.368 km
Perigee altitude
474.597 km
Semi-major axis
6,853.62 km
Eccentricity
0.00013
Inclination
53.1629°
RAAN
323.6072°
Arg. of periapsis
87.1583°
True anomaly
272.94181°
Mean anomaly
272.9566°
Eccentric anomaly
272.94921°
Mean motion
3.82528 °/min
Orbital period
94.11 mins
BSTAR
0.000030664
Loading maneuver chart data...
Computing Atmospheric mass density...
Loading historical data...
Loading historical data...
Loading historical data...
Loading historical data...
Loading historical data...
Loading historical data...
Loading historical data...

Documentation

Showing up to 5 results
|